Tracking 19562 objects as of 24-Mar-2019
HD Live streaming from Space Station
objects crossing your sky now

CLUSTER II-FM6

Track CLUSTER II-FM6 now!
CLUSTER II-FM6 is classified as:


NORAD ID: 26410
Int'l Code: 2000-041A
Perigee: 36,494.2 km
Apogee: 96,310.0 km
Inclination: 131.1 °
Period: 3,256.2 minutes
Semi major axis: 72773 km
RCS: 1.9953 m2 (large)
Launch date: July 16, 2000
Source: European Space Agency (ESA)
Launch site: TYURATAM MISSILE AND SPACE COMPLEX (TTMTR)
aabbcc
Your satellite tracking list
Your tracking list is empty




NASA's NSSDC Master Catalog

Two Line Element Set (TLE):
1 26410U 00041A   19084.26726890 -.00000082 +00000-0 +00000-0 0  9991
2 26410 131.1482 338.2562 4109750 170.4690 000.4249 00.44222879008596
Source of the keplerian elements: AFSPC